This demonstration page uses our WeatherBlox Daily Observations layout. Learn more.

Left ArrowRight Arrow

39.01783, -85.05884

Hourly Observations for February 18, 2016

Temp ( °F °C ) Dew Point ( °F °C ) Humidity (%) Winds ( mph kmh ) Pressure ( in mb ) Visibility ( mi km ) Precip ( " mm )
12:52 am 00:52 Cloudy 31 -0.6 24 -4.4 76 76 W 3 6 30.39 1029 10 16 N/A
1:52 am 01:52 Cloudy 31 -0.6 24 -4.4 76 76 N N/A 30.39 1029 9 14 N/A
2:52 am 02:52 Cloudy 30 -1.1 24 -4.4 79 79 N N/A 30.38 1029 9 14 N/A
3:52 am 03:52 Cloudy 29 -1.7 24 -4.4 82 82 N N/A 30.41 1030 8 13 N/A
4:52 am 04:52 Cloudy 29 -1.7 24 -4.4 82 82 N N/A 30.42 1030 8 13 N/A
5:52 am 05:52 Cloudy 29 -1.7 24 -4.4 82 82 S 3 6 30.43 1031 8 13 N/A
6:52 am 06:52 Mostly Cloudy with Mist and Fog 28 -2.2 24 -4.4 85 85 N N/A 30.46 1032 6 10 N/A
7:52 am 07:52 Mostly Cloudy with Mist and Fog 28 -2.2 24 -4.4 85 85 ESE 5 7 30.48 1032 5 8 N/A
8:52 am 08:52 Mostly Cloudy with Mist and Fog 30 -1.1 26 -3.3 85 85 ESE 5 7 30.50 1033 5 8 N/A
9:52 am 09:52 Mostly Cloudy 35 1.7 28 -2.2 76 76 SE 6 9 30.50 1033 7 11 N/A
10:52 am 10:52 Cloudy 37 2.8 26 -3.3 65 65 SSE 10 17 30.52 1034 9 14 N/A
11:52 am 11:52 Cloudy 39 3.9 27 -2.8 62 62 S 10 17 30.51 1033 9 14 N/A
12:52 pm 12:52 Mostly Cloudy 40 4.4 26 -3.3 58 58 SSE 12 19 30.50 1033 10 16 N/A
1:52 pm 13:52 Mostly Cloudy 42 5.6 28 -2.2 58 58 SSE 12 19 30.46 1031 10 16 N/A
2:52 pm 14:52 Mostly Cloudy 43 6.1 26 -3.3 51 51 SE 14 22 30.43 1031 10 16 N/A
3:52 pm 15:52 Mostly Cloudy 43 6.1 27 -2.8 53 53 SE 14 22 30.41 1030 10 16 N/A
4:52 pm 16:52 Mostly Cloudy 43 6.1 28 -2.2 56 56 SE 12 19 30.38 1029 10 16 N/A
5:52 pm 17:52 Mostly Cloudy 41 5 28 -2.2 60 60 ESE 13 20 30.37 1028 10 16 N/A
6:52 pm 18:52 Cloudy 39 3.9 28 -2.2 65 65 SE 12 19 30.35 1028 10 16 N/A
7:52 pm 19:52 Cloudy 39 3.9 28 -2.2 65 65 SE 10 17 30.34 1028 10 16 N/A
8:52 pm 20:52 Cloudy 40 4.4 28 -2.2 63 63 SE 17 28 30.32 1027 10 16 N/A
9:52 pm 21:52 Mostly Cloudy 39 3.9 28 -2.2 65 65 SE 16 26 30.29 1026 10 16 N/A
10:52 pm 22:52 Partly Cloudy 38 3.3 28 -2.2 68 68 SE 17 28 30.26 1025 10 16 N/A
11:52 pm 23:52 Partly Cloudy 39 3.9 28 -2.2 65 65 SSE 18 30 30.22 1024 10 16 N/A

Powered by AerisWeather